This demonstration page uses our WeatherBlox Daily Observations layout. Learn more.

Left ArrowRight Arrow

31.31129, -92.44514

Hourly Observations for October 31, 2015

Temp ( °F °C ) Dew Point ( °F °C ) Humidity (%) Winds ( mph kmh ) Pressure ( in mb ) Visibility ( mi km ) Precip ( " mm )
12:53 am 00:53 Partly Cloudy 69 20.6 65 18.3 87 87 SE 13 20 29.82 1010 8 13 0.00 0.00
1:53 am 01:53 Mostly Cloudy 69 20.6 65 18.3 87 87 SE 14 22 29.82 1010 8 13 0.00 0.00
2:53 am 02:53 Mostly Clear 70 21.1 65 18.3 84 84 SE 15 24 29.79 1009 8 13 0.00 0.00
3:05 am 03:05 Mostly Cloudy 70 21.1 65 18.3 84 84 SE 15 24 29.77 1008 8 13 0.00 0.00
3:53 am 03:53 Mostly Cloudy 69 20.6 65 18.3 87 87 SE 16 26 29.77 1008 8 13 0.00 0.00
4:31 am 04:31 Mostly Cloudy with Light Rain 69 20.6 66 18.9 90 90 SSE 7 11 29.80 1009 8 13 0.00 0.03
4:53 am 04:53 Mostly Cloudy with Light Rain 68 20 66 18.9 93 93 SE 10 17 29.79 1009 6 10 0.01 0.25
5:05 am 05:05 Mostly Cloudy with Light Rain 68 20 66 18.9 93 93 SE 10 17 29.77 1008 6 10 0.00 0.03
5:53 am 05:53 Mostly Cloudy with Rain 68 20 67 19.4 96 96 ESE 13 20 29.78 1008 4 6 0.13 3.30
6:05 am 06:05 Mostly Cloudy with Heavy Rain 68 20 67 19.4 96 96 SE 10 17 29.77 1008 3 4 0.05 1.27
6:36 am 06:36 Cloudy with Strong Thunderstorms 68 20 68 20 100 100 E 10 17 29.77 1008 3 5 0.19 4.83
6:51 am 06:51 Cloudy with Nearby Thunderstorms 68 20 68 20 100 100 E 13 20 29.77 1008 3 4 0.27 6.86
6:53 am 06:53 Cloudy with Nearby Thunderstorms 68 20 68 20 100 100 E 13 20 29.76 1008 2 3 0.30 7.62
6:55 am 06:55 Cloudy with Heavy Rain 68 20 68 20 100 100 E 13 20 29.77 1008 2 3 0.02 0.51
7:02 am 07:02 Cloudy with Heavy Rain 68 20 68 20 100 100 E 13 20 29.74 1007 2 2 0.14 3.56
7:15 am 07:15 Cloudy with Heavy Rain 69 20.6 68 20 96 96 E 14 22 29.74 1007 3 4 0.20 5.08
7:19 am 07:19 Cloudy with Heavy Rain 69 20.6 68 20 96 96 E 13 20 29.74 1007 3 5 0.22 5.59
7:28 am 07:28 Cloudy with Rain 69 20.6 68 20 96 96 ENE 15 24 29.71 1006 3 5 0.24 6.10
7:35 am 07:35 Cloudy with Nearby Thunderstorms 69 20.6 68 20 96 96 E 17 28 29.71 1006 4 6 0.25 6.35
7:42 am 07:42 Cloudy with Nearby Thunderstorms 69 20.6 68 20 96 96 E 20 31 29.68 1005 4 6 0.27 6.86
7:53 am 07:53 Cloudy with Strong Thunderstorms 69 20.6 68 20 96 96 ESE 30 48 29.72 1006 3 4 0.38 9.65
7:55 am 07:55 Cloudy with Strong Thunderstorms 69 20.6 68 20 96 96 ESE 33 54 29.71 1006 2 3 0.14 3.56
8:00 am 08:00 Cloudy with Strong Thunderstorms 69 20.6 69 20.6 100 100 ESE 30 48 29.68 1005 1 1 0.54 13.72
8:16 am 08:16 Cloudy with Strong Thunderstorms 69 20.6 69 20.6 100 100 VRB 6 9 29.71 1006 1 2 1.08 27.43
8:21 am 08:21 Cloudy with Nearby Thunderstorms 69 20.6 69 20.6 100 100 undefined N/A 29.71 1006 1 2 1.15 29.21
8:30 am 08:30 Cloudy with Nearby Thunderstorms 69 20.6 68 20 96 96 NNE 13 20 29.71 1006 2 3 1.25 31.75
8:44 am 08:44 Cloudy with Heavy Rain 69 20.6 69 20.6 100 100 NW 5 7 29.74 1007 1 1 1.44 36.58
8:53 am 08:53 Cloudy with Heavy Rain 69 20.6 69 20.6 100 100 Calm 29.75 1007 1 2 1.54 39.12
9:11 am 09:11 Cloudy with Nearby Thunderstorms 68 20 68 20 100 100 VRB 6 9 29.74 1007 1 1 0.47 11.94
9:23 am 09:23 Cloudy with Nearby Thunderstorms 68 20 68 20 100 100 VRB 6 9 29.74 1007 1 1 0.88 22.35
9:33 am 09:33 Cloudy with Heavy Rain 68 20 68 20 100 100 ESE 14 22 29.74 1007 1 2 1.01 25.65
9:40 am 09:40 Cloudy with Heavy Rain 68 20 68 20 100 100 NNW 20 31 29.77 1008 2 3 1.06 26.92
9:42 am 09:42 Cloudy with Heavy Rain 68 20 68 20 100 100 NW 13 20 29.80 1009 2 3 1.12 28.45
9:51 am 09:51 Cloudy with Heavy Rain 68 20 68 20 100 100 NE 8 13 29.77 1008 1 1 1.43 36.32
9:53 am 09:53 Cloudy with Heavy Rain 68 20 68 20 100 100 N 12 19 29.74 1007 1 1 1.48 37.59
10:00 am 10:00 Cloudy with Heavy Rain 68 20 68 20 100 100 N 13 20 29.77 1008 1 2 0.17 4.32
10:13 am 10:13 Cloudy with Heavy Rain 68 20 68 20 100 100 NNW 15 24 29.74 1007 1 1 0.44 11.18
10:17 am 10:17 Cloudy with Nearby Thunderstorms 68 20 68 20 100 100 NNW 13 20 29.77 1008 1 2 0.53 13.46
10:25 am 10:25 Cloudy with Thunderstorms 68 20 68 20 100 100 W 9 15 29.77 1008 2 3 0.55 13.97
10:30 am 10:30 Cloudy with Strong Thunderstorms 69 20.6 69 20.6 100 100 S 6 9 29.77 1008 2 3 0.64 16.26
10:38 am 10:38 Cloudy with Strong Thunderstorms 68 20 68 20 100 100 W 5 7 29.74 1007 1 1 0.81 20.57
10:42 am 10:42 Cloudy with Strong Thunderstorms 68 20 68 20 100 100 W 15 24 29.74 1007 1 2 0.90 22.86
10:49 am 10:49 Cloudy with Strong Thunderstorms 68 20 66 19 94 94 WSW 9 15 29.71 1006 1 1 1.09 27.69
10:53 am 10:53 Cloudy with Strong Thunderstorms 68 20 66 18.9 93 93 WNW 23 37 29.79 1009 1 1 1.29 32.77
11:07 am 11:07 Cloudy with Strong Thunderstorms 66 18.9 66 18.9 100 100 NNW 26 43 29.77 1008 1 1 0.35 8.89
11:14 am 11:14 Cloudy with Strong Thunderstorms 66 18.9 65 18.3 96 96 N 24 39 29.77 1008 2 3 0.38 9.65
11:17 am 11:17 Cloudy with Nearby Thunderstorms 66 18.9 65 18.3 96 96 N 21 33 29.77 1008 3 5 0.39 9.91
11:29 am 11:29 Cloudy with Nearby Thunderstorms 66 18.9 65 18.3 96 96 N 17 28 29.80 1009 3 5 0.42 10.67
11:53 am 11:53 Mostly Cloudy with Light Rain 66 18.9 65 18.3 96 96 N 13 20 29.80 1009 9 14 0.43 10.92
12:53 pm 12:53 Mostly Sunny N/A N/A N/A undefined N/A N/A N/A 0.03 0.76
1:32 pm 13:32 Mostly Cloudy N/A N/A N/A NW 8 13 N/A 8 13 0.00 0.00
1:53 pm 13:53 Mostly Cloudy N/A N/A N/A NW 8 13 N/A 8 13 0.00 0.00
2:00 pm 14:00 Mostly Sunny 66 18.9 66 18.9 100 100 Calm 29.77 1008 N/A 0.00 0.00
2:53 pm 14:53 Mostly Sunny N/A N/A N/A undefined N/A N/A N/A 0.05 1.27
3:53 pm 15:53 Mostly Sunny N/A N/A N/A undefined N/A N/A N/A 0.00 0.00
4:53 pm 16:53 undefined N/A N/A N/A undefined N/A N/A N/A 0.00 0.00
5:53 pm 17:53 undefined N/A N/A N/A undefined N/A N/A N/A 0.00 0.00
6:53 pm 18:53 Mostly Clear with Rain 66 18.9 66 18.9 100 100 S 3 6 29.82 1010 6 10 0.01 0.25
7:14 pm 19:14 Mostly Cloudy with Heavy Rain 66 18.9 66 18.9 100 100 ESE 9 15 29.80 1009 5 8 0.03 0.76
7:53 pm 19:53 Mostly Cloudy with Rain 66 18.9 66 18.9 100 100 ESE 5 7 29.81 1010 4 6 0.12 3.05
8:08 pm 20:08 Cloudy with Rain 66 18.9 66 18.9 100 100 SW 6 9 29.83 1010 5 8 0.04 1.02
8:53 pm 20:53 Cloudy with Light Rain 67 19.4 67 19.4 100 100 SE 7 11 29.84 1010 8 13 0.05 1.27
9:39 pm 21:39 Cloudy with Light Rain 67 19.4 67 19.4 100 100 W 3 6 29.85 1011 10 16 0.02 0.51
9:53 pm 21:53 Cloudy 67 19.4 67 19.4 100 100 WNW 6 9 29.88 1012 10 16 0.02 0.51

Powered by AerisWeather